Theta_e
320 320 324 325 330 328 324 323 322 321 321 320 320 320 320 320 320 320 323 323 318 314 317 313 318 324 327 328 330 334 335 336 337 337 335 332 331 329 328 323 324 322 318 316 315 315 318 328 332
320 321 325 327 327 327 322 322 321 319 319 319 320 320 319 319 318 318 318 316 313 318 318 323 316 319 326 328 329 333 334 334 337 337 334 332 331 330 327 325 321 319 317 314 313 314 318 326 332
319 322 325 327 323 322 323 320 319 320 319 319 319 319 319 318 317 317 316 315 313 321 323 319 317 318 317 321 325 328 332 333 334 333 333 332 331 329 327 324 319 317 315 313 311 312 317 328 331
321 323 322 323 322 321 321 318 319 319 319 319 318 318 318 316 315 315 314 314 317 319 326 323 317 319 322 321 318 322 334 334 336 334 333 333 331 330 328 324 317 320 319 325 316 310 314 334 333
321 322 324 323 321 320 320 319 319 319 319 318 317 318 315 314 314 314 314 315 316 318 320 325 315 314 317 322 322 321 322 330 332 332 333 333 332 331 329 326 319 328 330 332 328 318 312 331 333
320 320 323 324 321 320 319 318 318 318 318 317 317 316 314 313 314 313 314 314 316 318 318 317 315 312 313 318 321 321 322 325 328 331 331 330 331 331 330 328 329 328 329 328 329 328 313 327 334
322 323 324 321 320 321 318 318 317 317 316 314 315 316 314 312 311 311 312 312 312 313 316 318 319 318 316 315 318 320 319 319 322 328 330 329 330 331 331 329 327 327 328 327 326 327 323 325 333
320 320 322 321 319 321 317 318 317 317 316 314 315 313 311 308 309 309 308 308 307 307 308 309 312 316 319 320 325 321 320 319 319 322 323 327 330 332 331 328 327 326 327 326 325 328 327 326 333
319 323 322 320 320 319 318 317 316 316 315 314 314 312 307 307 307 307 306 306 306 305 304 305 306 308 310 316 319 327 326 326 326 320 325 323 329 333 331 329 327 327 326 326 325 326 330 325 332
320 323 320 318 317 317 317 316 315 315 314 313 312 308 306 305 304 304 303 303 303 303 303 301 302 305 306 308 311 317 324 329 326 327 329 333 332 333 332 329 328 328 327 326 325 325 331 327 330
319 320 318 318 317 315 316 315 315 315 312 311 308 306 305 304 303 302 301 301 301 300 301 302 301 301 300 301 306 312 317 320 326 325 326 327 330 330 331 330 329 328 327 326 325 325 331 328 328
317 318 318 317 315 314 315 314 313 312 311 309 306 305 304 303 302 300 300 300 300 300 299 300 301 301 300 299 299 302 305 312 320 323 326 327 328 329 330 329 328 328 327 326 324 325 330 329 329
318 316 315 315 314 314 314 314 313 311 309 306 305 304 303 302 300 299 299 299 299 298 299 299 298 299 299 300 299 299 299 303 309 317 322 325 327 327 327 329 328 328 327 325 323 325 330 331 330
317 316 315 314 314 314 313 313 314 309 307 305 304 303 302 301 300 299 298 297 296 296 298 298 298 297 296 296 296 297 297 298 302 309 315 321 323 326 327 327 328 327 327 324 323 324 326 330 328
314 315 313 313 314 314 313 313 312 309 307 305 304 303 302 301 300 299 298 296 295 296 297 297 297 296 296 295 295 295 297 296 297 302 311 315 321 323 325 326 327 328 327 324 323 325 325 328 325
314 315 316 314 314 313 313 312 309 308 308 304 302 301 300 300 300 299 296 296 295 295 295 295 296 295 295 294 294 295 296 296 295 297 303 313 317 320 322 324 327 328 327 326 323 325 325 325 322
316 317 314 316 313 312 312 313 309 308 306 303 301 300 299 299 297 295 295 295 295 294 294 293 294 296 295 294 294 294 296 300 298 295 297 301 310 317 319 322 324 327 326 325 323 324 326 326 324
313 311 313 314 314 312 312 312 307 306 303 301 299 299 298 297 296 295 295 294 293 293 293 293 293 293 293 294 294 293 294 297 300 296 295 296 300 307 317 319 320 321 325 326 324 323 325 324 324
312 312 312 313 313 311 311 309 308 304 302 300 299 298 297 296 295 295 294 293 292 292 292 292 293 293 293 293 293 293 294 293 297 298 294 295 301 306 307 313 318 321 324 324 323 323 324 323 324
313 312 312 312 312 310 309 309 304 302 302 300 299 298 297 295 294 294 294 292 291 292 292 292 292 292 292 293 293 292 293 294 294 296 296 296 298 297 296 303 308 318 321 323 323 322 323 324 323
311 311 311 311 309 308 308 307 303 300 300 299 298 298 296 294 294 294 293 292 291 291 292 292 291 292 291 292 293 291 292 294 294 294 295 297 299 298 297 300 302 308 319 322 323 323 321 321 321
311 307 307 308 308 307 306 306 306 299 298 298 299 296 295 294 294 293 292 291 291 292 291 291 291 290 290 292 291 292 292 291 293 294 294 294 297 299 297 297 301 303 307 319 321 322 322 320 320
310 305 305 306 306 306 306 304 306 301 299 298 297 295 294 294 293 292 292 292 291 291 290 290 289 289 289 288 287 288 290 291 290 291 294 293 295 297 297 295 299 301 304 309 321 322 320 320 320
306 306 306 306 305 305 305 305 307 302 302 297 296 294 294 293 292 292 291 291 291 290 290 289 288 287 286 285 283 283 286 289 290 290 292 292 294 296 297 296 294 301 304 306 317 321 320 320 320
307 306 306 309 307 308 303 302 303 298 297 296 295 294 293 292 292 292 291 291 290 289 290 288 286 286 284 282 280 280 280 282 286 289 291 293 294 295 297 296 294 298 302 303 314 320 320 320 320
306 305 305 306 308 306 301 301 303 298 297 296 295 294 293 292 292 292 291 290 289 290 288 286 285 285 283 282 279 279 279 279 281 284 288 290 292 294 296 296 295 294 300 301 303 316 316 318 320
305 303 302 303 294 298 299 302 299 297 296 296 294 293 292 292 292 291 290 289 290 288 287 285 284 283 281 280 279 278 278 278 279 281 283 287 291 294 295 295 295 293 298 301 304 306 318 317 318
299 301 301 300 296 300 303 302 302 297 296 294 293 293 292 292 291 290 290 289 289 287 286 284 283 281 280 279 278 277 277 277 278 278 280 284 288 291 295 295 295 294 295 299 301 305 308 316 317
297 297 297 298 301 300 299 300 297 296 296 294 293 293 292 291 291 290 289 289 287 286 284 282 282 281 280 278 277 276 275 276 277 277 278 281 284 288 293 296 295 295 294 297 302 304 312 314 316
296 298 297 296 298 296 297 298 299 298 294 294 293 292 291 291 290 289 289 288 286 285 283 281 280 280 280 278 276 275 274 275 275 277 278 279 282 284 290 293 296 295 294 293 300 302 302 315 315
Wind_Speed
3 3 5 3 2 2 5 5 1 9 5 10 8 5 2 5 5 2 7 9 17 21 17 16 13 12 12 14 16 15 14 14 14 15 15 16 15 15 16 17 17 17 17 16 15 14 14 14 17
4 3 3 5 1 2 4 4 8 7 7 6 5 4 5 5 15 5 12 19 22 17 11 15 11 12 13 13 15 16 16 16 17 18 18 18 18 18 17 17 17 17 17 17 16 16 16 18 17
4 3 4 3 2 5 3 7 8 5 6 6 6 4 3 6 15 10 19 22 23 11 16 14 14 13 14 16 16 17 19 19 20 20 21 21 20 21 20 19 18 16 17 16 16 17 18 20 19
3 4 6 1 5 5 5 8 10 9 7 5 4 2 9 21 13 13 16 18 21 21 12 18 15 17 18 18 20 22 20 22 22 23 23 24 23 22 22 20 19 16 16 15 16 17 20 20 21
8 5 3 3 4 4 5 9 7 1 5 10 7 6 20 25 19 21 24 19 16 13 11 14 19 15 18 20 23 23 25 25 26 27 26 26 26 26 24 21 18 18 18 17 19 18 21 22 24
5 4 3 1 5 6 7 10 6 13 7 12 5 5 16 26 23 21 17 17 18 17 17 17 18 17 14 18 22 25 27 26 28 28 29 29 28 28 27 24 22 20 20 21 20 20 21 24 25
3 3 3 4 4 3 6 8 12 8 15 10 9 4 14 28 22 19 16 12 14 15 15 14 15 19 20 17 19 25 26 30 29 30 31 31 31 30 29 27 25 24 23 22 21 22 24 26 27
4 1 4 4 6 3 5 4 10 8 7 12 10 8 8 22 18 17 19 22 24 24 24 21 17 17 16 20 20 20 24 28 32 32 34 34 33 32 30 29 27 25 25 24 24 23 26 28 29
3 2 2 4 4 4 8 8 12 2 17 20 21 19 12 12 13 16 20 22 23 25 29 29 29 26 18 20 20 20 23 26 27 31 33 34 35 34 31 31 30 28 27 26 25 25 28 30 30
2 2 5 6 7 7 12 7 6 7 16 10 16 14 13 13 18 23 25 28 29 29 29 32 32 30 30 25 20 22 24 22 28 28 28 32 33 36 33 33 32 31 29 27 27 26 28 30 32
3 2 4 5 10 9 4 8 2 7 6 15 15 15 14 18 21 25 26 28 28 29 28 29 30 32 33 33 32 25 25 26 27 27 31 31 34 37 36 34 33 32 27 27 27 26 28 33 36
3 3 3 3 7 5 3 4 15 17 13 15 14 14 15 21 24 24 25 27 27 29 31 31 32 32 33 35 34 31 31 28 26 30 31 34 36 35 37 36 38 34 31 29 28 27 29 31 35
5 4 1 6 3 2 4 3 12 19 20 15 14 15 16 17 18 20 22 23 27 29 31 33 34 37 39 39 37 35 33 31 30 30 33 36 36 37 38 36 38 36 34 31 30 27 30 37 38
2 5 10 3 2 3 5 2 9 21 21 17 14 13 12 14 17 21 26 26 30 32 30 35 41 42 43 46 48 44 36 34 34 31 33 35 38 41 39 38 37 38 35 33 31 31 33 36 32
3 3 5 7 4 3 7 5 7 21 18 16 12 10 11 12 16 20 24 27 31 33 33 36 41 47 46 47 49 50 46 35 34 35 32 37 37 42 43 40 39 40 38 36 33 33 31 37 34
4 3 5 8 10 8 3 4 7 12 18 14 11 9 10 13 16 22 24 27 30 32 31 34 37 43 44 46 47 45 46 45 35 36 34 32 37 40 43 42 43 43 41 39 36 35 34 37 38
5 3 8 2 13 6 7 4 12 14 19 14 9 9 10 11 16 19 22 24 26 29 34 39 38 38 38 42 44 44 42 41 38 37 39 37 31 34 41 42 43 48 51 44 41 40 42 44 44
3 6 5 6 2 8 6 9 7 16 18 16 11 8 8 11 15 19 19 19 25 30 30 39 40 42 40 43 41 44 44 40 42 38 43 41 36 34 32 40 47 47 61 49 45 44 44 41 39
5 7 10 10 3 1 7 8 7 18 18 15 10 7 6 10 15 17 16 21 33 34 36 42 41 43 43 43 43 44 45 46 41 44 41 45 35 37 42 31 38 49 43 50 46 43 46 42 42
6 9 11 5 4 3 9 15 7 15 16 17 10 5 5 12 16 16 18 26 38 38 42 46 45 47 48 44 44 48 47 46 44 42 42 46 44 41 44 48 39 45 52 45 46 49 50 48 50
7 8 5 4 7 10 17 14 10 8 10 12 9 4 7 13 14 14 18 29 43 41 43 45 47 49 50 44 44 55 46 44 41 44 41 41 41 46 42 41 55 37 47 53 59 56 55 54 51
5 4 3 7 5 4 7 7 4 14 11 10 10 7 8 12 13 16 22 40 41 39 42 46 46 51 47 41 48 43 44 50 44 44 44 45 40 40 42 29 49 50 38 44 55 61 57 54 53
3 2 6 10 11 10 10 6 5 19 13 11 10 6 10 11 13 19 30 36 39 39 43 45 48 47 47 49 45 45 46 46 52 48 42 45 41 38 41 37 32 47 40 44 53 54 53 60 57
7 6 9 12 8 5 8 6 4 10 15 10 8 9 9 11 15 27 36 36 39 42 45 44 46 50 51 50 55 48 48 42 39 41 45 45 42 38 38 42 33 37 52 35 46 56 55 63 61
3 5 4 5 1 6 5 5 7 6 10 10 8 9 10 14 26 29 34 38 39 45 43 49 56 60 61 58 50 45 47 47 47 39 34 41 39 36 38 41 29 33 36 40 37 57 53 66 62
2 0 4 6 3 5 7 7 4 13 18 14 10 11 13 18 19 27 31 37 40 40 46 51 56 63 62 59 53 46 44 44 43 44 42 36 32 37 38 38 38 32 36 42 46 49 60 52 68
4 4 2 2 2 2 5 6 5 12 9 9 9 13 12 15 21 27 34 37 34 42 46 49 51 61 56 55 52 47 44 43 42 41 45 44 30 30 38 40 42 36 31 26 39 12 61 53 51
2 2 4 1 3 6 5 7 5 8 5 5 5 8 10 17 25 28 33 31 39 40 48 48 51 51 52 56 46 50 44 45 47 42 42 42 40 29 31 38 39 37 32 31 34 46 38 55 54
4 3 4 1 4 5 3 4 7 7 7 3 2 9 16 20 24 30 34 34 39 38 44 50 56 56 56 52 54 50 48 43 40 42 42 36 34 33 27 33 40 35 30 31 28 32 26 54 57
1 6 9 4 5 4 3 14 4 4 9 8 3 7 12 20 26 35 31 41 42 43 49 54 61 62 60 58 57 49 54 42 47 37 36 36 36 36 30 21 33 32 30 29 26 27 38 50 66
Wind_Direction
35 76 49 273 298 191 68 88 252 36 26 38 7 18 306 251 11 33 50 358 341 334 325 330 323 316 289 271 266 265 262 263 266 268 268 278 283 282 276 268 257 255 260 252 249 241 231 223 225
29 18 25 278 243 152 95 63 50 55 41 4 344 8 24 17 38 23 354 338 340 329 323 309 317 313 299 285 282 273 265 261 263 267 274 276 279 282 286 275 262 261 258 258 246 238 226 222 223
44 23 281 227 272 45 55 55 46 71 86 30 4 19 55 10 25 29 356 343 346 347 325 307 305 296 292 292 287 279 273 266 264 267 271 273 276 279 287 280 269 258 257 254 251 237 223 223 220
36 277 267 264 48 91 44 57 27 11 116 108 36 33 67 48 40 6 337 348 354 356 341 320 301 292 285 278 280 282 273 270 268 268 270 271 275 276 283 281 269 264 258 257 251 241 224 224 222
341 276 265 236 108 93 78 59 23 10 41 57 38 352 75 26 12 3 6 358 353 343 326 302 315 304 285 279 279 278 279 275 270 269 269 270 271 274 274 277 269 261 259 253 258 247 227 224 224
289 245 290 340 82 89 84 40 328 25 4 50 55 2 57 18 14 12 21 19 13 1 354 344 328 323 308 281 275 278 280 277 275 271 270 270 270 271 270 269 267 260 261 255 253 248 236 225 227
304 327 322 342 75 147 77 13 45 349 47 31 358 335 34 22 16 8 7 5 4 0 348 344 342 332 314 301 283 273 273 275 275 274 273 270 269 266 267 265 262 261 258 256 254 246 239 227 227
331 282 280 80 40 70 96 356 74 34 65 84 35 33 19 19 15 19 21 22 23 23 23 13 339 318 321 305 296 292 274 270 271 272 271 272 267 265 263 262 259 258 256 257 253 250 237 227 228
338 294 272 39 18 22 63 40 37 335 76 59 58 68 56 12 13 18 18 23 25 25 23 20 16 14 335 308 304 296 289 282 277 272 265 264 265 261 261 260 259 258 255 256 255 250 237 226 227
294 304 29 12 22 18 13 49 33 69 63 44 63 56 48 33 37 35 30 25 22 19 19 16 16 13 10 1 327 298 282 286 285 281 273 268 261 262 261 261 257 255 254 251 253 248 238 224 225
351 312 6 16 34 19 335 57 28 118 55 67 79 68 55 44 41 36 29 26 21 14 9 10 9 10 9 4 1 344 322 282 281 281 277 270 264 262 260 257 254 255 254 243 244 239 226 221 223
287 68 350 11 21 11 9 297 86 76 89 105 83 71 54 44 37 31 26 20 14 11 6 3 2 360 359 359 358 349 347 328 288 276 274 272 267 258 260 253 251 249 248 243 239 237 220 221 225
214 109 229 283 330 30 318 115 130 99 108 99 85 73 59 49 36 24 21 15 7 10 3 354 358 352 348 343 344 343 339 331 329 286 273 269 271 262 257 252 250 246 244 239 234 231 216 214 218
17 298 272 236 117 144 3 347 160 115 123 100 91 80 66 47 34 23 18 12 5 3 1 348 347 346 344 342 338 335 331 327 320 316 281 275 268 266 260 253 246 244 242 233 231 230 219 213 209
282 276 119 189 179 151 338 216 194 122 120 105 89 77 50 36 26 19 12 5 2 1 355 348 340 338 338 339 335 330 327 323 312 308 303 280 272 269 263 256 244 240 240 231 225 224 219 217 203
243 212 199 168 191 163 110 285 103 131 131 110 98 70 43 28 20 6 6 357 358 357 351 344 340 335 333 332 330 328 322 320 313 301 297 290 277 270 267 259 249 237 235 229 220 216 213 203 198
214 316 321 280 187 143 185 267 118 134 132 125 105 67 43 31 17 6 1 357 353 350 340 339 339 330 326 325 329 321 316 312 314 300 298 293 291 277 267 257 249 242 232 223 220 216 211 215 221
324 304 295 285 185 200 264 250 121 143 140 134 107 83 50 29 14 2 356 351 352 347 340 337 335 338 325 318 316 326 315 304 306 306 295 297 297 288 278 264 254 249 217 213 214 217 217 222 226
271 261 270 277 128 189 244 261 265 150 145 137 123 101 59 31 6 1 356 351 344 347 335 339 331 329 324 316 313 316 304 304 298 303 297 300 293 286 282 280 267 257 232 221 210 215 212 212 210
270 269 273 286 146 340 267 260 135 164 167 153 134 114 48 13 4 358 352 347 347 344 337 338 330 326 322 315 308 311 306 297 295 296 298 298 297 295 302 269 285 256 236 216 218 209 201 201 195
281 280 307 285 313 274 273 269 151 160 146 151 159 146 39 13 357 352 344 348 347 343 334 331 328 325 321 316 307 308 303 297 293 294 293 294 297 302 306 275 270 299 243 215 211 207 199 194 197
280 51 317 279 303 240 54 286 104 167 172 181 161 85 27 1 355 343 344 349 342 334 330 329 329 322 322 313 312 310 303 298 296 290 291 291 294 295 302 299 271 273 279 244 205 205 202 204 194
251 343 257 259 251 284 254 255 287 158 188 181 142 78 22 358 349 344 354 343 333 331 330 328 327 325 316 311 311 310 304 295 300 295 290 289 290 291 298 305 284 277 279 262 205 198 203 205 197
323 287 273 251 256 266 258 226 217 179 197 142 126 52 21 356 348 353 347 331 332 330 330 331 329 323 320 313 315 305 292 296 302 297 292 289 287 289 284 295 302 266 271 299 232 205 207 199 204
227 290 324 332 26 230 85 334 246 142 104 125 104 44 16 360 360 346 334 331 331 332 332 326 332 331 329 324 322 315 309 293 290 295 300 294 282 286 284 294 300 280 278 275 250 204 205 204 204
203 9 163 259 261 267 14 252 245 127 130 135 67 33 11 2 345 336 331 330 329 331 326 328 330 332 331 328 322 318 313 311 299 288 287 296 304 286 281 286 294 300 283 273 285 233 207 206 198
147 198 360 331 62 353 232 262 76 139 152 97 33 14 2 346 339 335 331 328 327 326 324 326 326 330 329 326 322 318 314 311 307 299 289 282 293 299 285 289 291 302 289 269 264 297 204 208 198
263 155 85 143 293 266 251 252 232 185 159 81 18 352 347 346 340 332 326 326 325 322 323 325 325 325 326 326 320 318 312 307 309 305 294 280 285 295 290 279 284 295 291 287 267 267 257 200 200
165 224 223 338 196 220 293 249 154 158 167 131 343 357 354 338 331 327 327 321 325 321 323 325 327 328 328 327 321 322 310 314 307 301 304 286 280 280 291 276 280 289 293 285 261 262 237 205 200
301 220 181 165 240 253 246 261 328 335 148 126 47 1 338 332 329 328 322 323 325 324 326 328 330 329 331 325 324 318 317 305 309 306 305 297 279 277 272 287 268 270 277 294 263 253 264 210 203